www.pogodaiklimat.ru

Погода и климат >> Архив погоды >> Пакистан >> Мангла


ПОГОДА в Мангле

  • Прогноз погоды в Мангле
  • Монитор погоды в Мангле

АРХИВ ПОГОДЫ в Мангле

Время (UTC), дата Ветер
(напр.,м/с)
 
Видим.   Явления Облачность Т
(С)
Тd
(С)
f
(%)
Тe
(С)
Тes
(С)
Комфортность P
(гПа)
Po
(гПа)
Тmin
(С)
Tmax
(С)
R
(мм)
R24
(мм)
S
(см)
18 16.07 ЮВ 2 4000 м 8/4 1200 м
[Sc Ac trans]
+26.5 +23.6 84 +36 +36 очень
душно
1003.5 971.6
21 16.07 В 3 4000 м зарница {гроза} 9/6 900 м
[Cb cap Ac As]
+25.5 +23.3 88 +34 +34 очень
душно
1004.3 972.3
00 17.07 штиль 0 4000 м дым {гроза, морось} 5/3 1200 м
[Sc Ac trans]
+24.5 +22.3 88 +32 +32 очень
душно
1003.3 971.2 0.0
06 17.07 В 4 4000 м дым 9/5 1200 м
[Sc diur, vesp Ac trans]
+30.0 +24.3 72 +42 +46 опасность
перегрева
1003.6 972.1
09 17.07 ЮВ 4 4000 м 8/4 1200 м
[Sc diur, vesp Ac trans]
+32.0 +24.2 63 +44 +48 опасность
перегрева
1002.6 971.3
12 17.07 Ю 2 4000 м 4/4 1200 м
[Sc diur, vesp]
+32.5 +24.8 64 +46 +48 опасность
перегрева
1001.0 969.8 +33.2
15 17.07 штиль 0 4000 м 3/0
[Ac trans]
+31.0 +24.6 69 +44 +44 опасность
перегрева
1000.6 969.3
18 17.07 штиль 0 4000 м ясно +30.0 +25.1 75 +43 +43 опасность
перегрева
1001.4 970.0
21 17.07 штиль 0 4000 м 6/3 1200 м
[Sc Ac trans]
+28.5 +25.0 81 +41 +41 опасность
перегрева
1002.3 970.7
00 18.07 штиль 0 4000 м 3/3 1200 м
[Sc]
+27.0 +24.9 88 +39 +39 очень
душно
1002.3 970.5
03 18.07 ЮВ 3 4000 м дым 6/1 1200 м
[Cu med, cong Ac trans Cs]
+29.5 +24.5 75 +42 +46 опасность
перегрева
1002.4 970.9 +26.7
06 18.07 Ю 2 4000 м 9/5 1200 м
[Sc diur, vesp As op]
+31.0 +25.4 72 +45 +49 опасность
перегрева
1003.5 972.1
09 18.07 штиль 0 4000 м дым 9/4 1200 м
[Sc diur, vesp Ac As]
+33.0 +24.6 61 +46 +51 опасность
перегрева
1001.7 970.5
12 18.07 ЮВ 2 4000 м дым 8/4 1200 м
[Sc Ac trans]
+33.0 +24.6 61 +46 +47 опасность
перегрева
1000.1 969.0 +33.5
15 18.07 ЮВ 3 4000 м дым 9/4 1200 м
[Sc Ac As]
+29.0 +23.2 71 +39 +39 очень
душно
1001.2 969.7
18 18.07 штиль 0 4000 м дым 6/3 1200 м
[Sc Ac trans]
+28.0 +22.9 74 +37 +37 очень
душно
1002.6 970.9
00 19.07 штиль 0 2000 м дымка 9/4 1200 м
[Sc Ac As]
+27.0 +23.4 81 +37 +37 очень
душно
1002.1 970.3
03 19.07 штиль 0 2000 м дымка 6/3 1200 м
[Sc Ac trans]
+29.0 +25.5 81 +43 +48 опасность
перегрева
1003.3 971.7 +26.4
06 19.07 штиль 0 4000 м дым 3/3 1200 м
[Sc diur, vesp]
+33.0 +24.6 61 +46 +64 опасность
перегрева
1002.8 971.6
09 19.07 ЮВ 9 4000 м гроза без осадков 9/5 900 м
[Cb cap Ac As]
+34.0 +25.7 62 +49 +49 опасность
перегрева
1001.6 970.6
15 19.07 штиль 0 4000 м 8/3 1200 м
[Sc Ac trans]
+28.0 +25.2 85 +41 +41 опасность
перегрева
1002.9 971.2
18 19.07 штиль 0 4000 м 3/0
[Ac trans]
+27.0 +24.1 84 +37 +37 очень
душно
1004.1 972.3
21 19.07 штиль 0 4000 м 6/1 1200 м
[Sc Ac trans]
+26.0 +23.1 84 +35 +35 очень
душно
1003.7 971.8
00 20.07 штиль 0 4000 м 5/1 1200 м
[Sc Ac trans]
+25.5 +23.3 88 +34 +34 очень
душно
1004.3 972.3
03 20.07 штиль 0 10 км 3/0
[Ac trans]
+29.0 +24.0 74 +40 +48 очень
душно
1004.7 973.0 +23.0
06 20.07 штиль 0 10 км 1/1 1200 м
[Sc diur, vesp]
+33.0 +23.0 56 +43 +67 опасность
перегрева
1004.0 972.8
09 20.07 штиль 0 10 км 3/3 1200 м
[Sc diur, vesp]
+35.5 +23.5 50 +46 +62 опасность
перегрева
1002.4 971.5
12 20.07 штиль 0 10 км 1/1 1200 м
[Sc diur, vesp]
+35.5 +22.6 47 +45 +49 опасность
перегрева
1000.5 969.6 +36.1
15 20.07 штиль 0 4000 м 1/1 1200 м
[Sc diur, vesp]
+32.0 +24.2 63 +44 +44 опасность
перегрева
1000.9 969.7
18 20.07 штиль 0 4000 м 4/1 1200 м
[Sc diur, vesp Ac trans]
+30.0 +23.5 68 +41 +41 опасность
перегрева
1002.2 970.7
21 20.07 штиль 0 4000 м 6/3 1200 м
[Sc diur, vesp Ac trans]
+28.5 +22.7 71 +38 +38 очень
душно
1001.7 970.1
00 21.07 штиль 0 4000 м дым 6/3 1200 м
[Sc Ac trans]
+27.5 +23.9 81 +38 +38 очень
душно
1003.2 971.4
03 21.07 штиль 0 4000 м дым 5/0
[Ac trans]
+29.5 +25.3 78 +43 +50 опасность
перегрева
1004.3 972.7 +27.2
06 21.07 В 2 4000 м дым 4/0
[Ac trans]
+33.5 +25.1 62 +48 +62 опасность
перегрева
1003.9 972.7
09 21.07 В 6 4000 м 6/3 1200 м
[Sc diur, vesp Ac trans]
+35.5 +25.1 55 +49 +52 опасность
перегрева
1002.9 972.0
12 21.07 В 4 4000 м 6/3 1200 м
[Sc diur, vesp Ac trans]
+35.0 +24.5 55 +48 +49 опасность
перегрева
1000.4 969.5 +36.1
15 21.07 штиль 0 4000 м 4/0
[Ac trans]
+33.0 +24.6 61 +46 +46 опасность
перегрева
1000.4 969.3
18 21.07 штиль 0 4000 м 4/0
[Ac trans]
+30.5 +24.9 72 +44 +44 опасность
перегрева
1001.7 970.3
21 21.07 штиль 0 4000 м дым 4/0 1000 м
[Ac trans]
+29.0 +24.8 78 +41 +41 опасность
перегрева
1001.8 970.2
00 22.07 штиль 0 4000 м дым 5/1 1200 м
[Sc Ac trans]
+28.0 +25.2 85 +41 +41 опасность
перегрева
1002.9 971.2
03 22.07 штиль 0 4000 м дым 3/0
[Ac trans]
+32.0 +25.8 70 +47 +55 опасность
перегрева
1002.7 971.4 +27.8
06 22.07 В 3 4000 м дым 6/3 1200 м
[Sc diur, vesp Ac trans]
+34.5 +26.3 62 +51 +59 опасность
перегрева
1002.8 971.8
09 22.07 В 5 4000 м дым 8/4 1200 м
[Sc diur, vesp Ac trans]
+36.5 +26.2 56 +53 +56 опасность
перегрева
1000.3 969.5
12 22.07 Ю 2 4000 м дым 6/3 1200 м
[Sc diur, vesp Ac trans]
+36.0 +25.6 55 +51 +52 опасность
перегрева
999.2 968.4 +37.1
15 22.07 ЮВ 2 2000 м дым 3/0
[Ac trans]
+33.0 +26.1 67 +49 +49 опасность
перегрева
999.0 967.9
18 22.07 штиль 0 2000 м дым 3/0
[Ac trans]
+31.0 +25.4 72 +45 +45 опасность
перегрева
1000.2 968.9
21 22.07 штиль 0 2000 м дымка 4/0
[Ac trans]
+29.0 +25.5 81 +43 +43 опасность
перегрева
1001.1 969.6
00 23.07 штиль 0 2000 м дымка 5/1 1200 м
[Sc Ac trans]
+28.0 +25.9 88 +42 +42 опасность
перегрева
1001.8 970.1
03 23.07 С 5 4000 м дым 9/4 1200 м
[Sc Ac As]
+28.0 +23.7 77 +38 +39 очень
душно
1002.9 971.2 +27.2
06 23.07 штиль 0 10 км 4/0
[Ac trans]
+33.0 +25.3 64 +47 +67 опасность
перегрева
1002.4 971.2
12 23.07 ЮВ 2 10 км 3/0
[Ac trans]
+37.0 +25.2 51 +51 +54 опасность
перегрева
997.0 966.4 +37.4

 

Местоположение метеостанции Мангла (Пакистан): широта 33.07 долгота 73.63 высота над уровнем моря 283 м.

В архиве по умолчанию представлена погода в Мангле за последнюю неделю. Архивные данные за месяц целиком и за предыдущие месяцы, начиная с января 2011 года, Вы можете получить, выбрав интересующий диапазон дат из раскрывающегося списка и нажав кнопку "Ввод!".


*Определитесь, кто Вы:
робот инопланетянин человек

Внимание! Время в таблицах - всемирное. Для получения местного времени необходимо прибавить поправку, которая равна 5 ч.

Смотрите также архив погоды в соседних городах и на ближайших метеорологических станциях:

Погода в Джеламе (Пакистан) (18 км)
Погода в Сиалкот аэропорту (Пакистан) (71 км)
Погода в Гуджрате (Пакистан) (74 км)
Погода в Чаквале (Пакистан) (75 км)
Погода в Исламабаде (Пакистан) (79 км)
Погода в Исламабад Сити (Пакистан) (87 км)
Погода в Равалакоте (Пакистан) (88 км)
Погода в Мерри (Пакистан) (97 км)
Погода в Сиялкоте (Пакистан) (105 км)
Погода в Хафизабаде (Пакистан) (110 км)

Пояснения к столбцам:

Ветер - указаны скорость ветра в м/с - средняя за 10 мин, порывы в срок и между сроками (в фигурных скобках) и направление, откуда дует ветер: С - северный, СВ - северо-восточный, В - восточный, ЮВ - юго-восточный, Ю - южный, ЮЗ - юго-западный, З - западный, СЗ - северо-западный.
Видимость - горизонтальная дальность видимости в метрах или километрах. При видимости от 1 до 10 км при отсутствии осадков обычно наблюдается дымка, при ухудшении видимости до 1 км и менее - туман. В сухую погоду видимость может ухудшаться дымом, пылью или мглою.
Явления - указаны атмосферные явления, наблюдавшиеся в срок или в последний час перед сроком; фигурными скобками обозначены явления, наблюдавшиеся между сроками (за 1-3 часа до срока); квадратными скобками обозначены град или гололедные отложения с указанием их диаметра в мм.
Облачность - указаны через наклонную черту общая и нижняя облачность в баллах и высота нижней границы облаков в метрах; квадратными скобками обозначены формы облаков: Ci - перистые, Cs - перисто-слоистые, Cc - перисто-кучевые, Ac - высококучевые, As - высокослоистые, Sc - слоисто-кучевые, Ns - слоисто-дождевые, Cu - кучевые, Cb - кучево-дождевые. Подробнее классификацию облаков см. в Атласе облаков (PDF).
T - Температура воздуха - температура, измеренная на высоте 2 м над землей.
Td - Температура точки росы - температура, при понижении до которой содержащийся в воздухе водяной пар достигнет насыщения.
f - Относительная влажность воздуха - влажноcть воздуха, измеренная на высоте 2 м над землей.
Te - Эффективная температура - температура, которую ощущает одетый по сезону человек в тени. Характеристика душности погоды. При расчете учитывается влияние влажности воздуха и скорости ветра на теплоощущения человека.
Tes - Эффективная температура на солнце - температура, которую ощущает человек, с поправкой на солнечный нагрев. Характеристика знойности погоды. Зависит от высоты солнца над горизонтом, облачности и скорости ветра. Ночью, в пасмурную погоду, а также при ветре 12 м/с и более поправка равна нулю.
P - Атмосферное давление - приведенное к уровню моря атмосферное давление.
Po - Атмосферное давление - измеренное на уровне метеостанции атмосферное давление.
Tmin - Минимальная температура - минимум температуры воздуха на высоте 2 м над землей.
Tmax - Максимальная температура - максимум температуры воздуха на высоте 2 м над землей.
R - Количество осадков - Количество выпавших осадков за период времени, мм. При наведении курсора мыши на число - период времени, за который выпало указанное количество осадков.
R24 - Количество осадков - Количество выпавших осадков за 24 часа, мм.
S - Снежный покров - Высота снежного покрова, см. При наведении курсора мыши на число - состояние снежного покрова и степень покрытия местности в баллах.